Terug naar catalogus

NUSAT-40

C SHOEMAKER

ActiefWetenschapPO
NORAD 56943·PAYLOAD·🇦🇷 Argentina

Gelanceerd Jun 12, 2023 vanaf Vandenberg Space Force Base

Loading…

Volgende Passages (komende 24 uur)

TLE

VersSource: Space-Track

Epoch: Sep 14, 2026, 05:42 UTC

1 56943U 23084M   26257.23770882  .04924417  25723-5  61601-3 0  9995
2 56943  97.4777  52.8898 0011724 268.7756  91.2198 16.35922825182965

Volg NUSAT-40 in realtime met AllMySat

Download on the App Store